Location: The Saddle
(36.8333°N, 80.3417°W)
Time: 09:58:32
(UTC-05:00)

S-56A Canister/Altair - Pass Details

Date: 16 December 2023
Orbit: 640 x 2488 km, 38.9° (Epoch: 25 February)

Event Time Altitude Azimuth Distance (km) Brightness Sun altitude
Rises 08:15:42 0° 244° (WSW) 4,897 11.4 7.3°
Reaches altitude 10° 08:19:26 10° 242° (WSW) 3,609 10.7 7.9°
Maximum altitude 08:28:02 73° 160° (SSE) 1,110 8.8 9.2°
Drops below altitude 10° 08:33:45 10° 77° (ENE) 2,448 10.7 10.1°
Sets 08:35:52 0° 75° (ENE) 3,241 11.3 10.5°
